Location: Newark
(55.7500°N, 37.6333°E)
Time: 21:01:26
(UTC+00:00)

OTV 5 (USA 277) - Visible Passes

Search period start: 17 October 2019 00:00
Search period end: 27 October 2019 00:00
Orbit: 310 x 324 km, 54.5° (Epoch: 08 October)

Date Brightness Start Highest point End Pass type
(mag) Time Alt. Az. Time Alt. Az. Time Alt. Az.
17 Oct ? 01:19:50 14° ESE 01:19:50 14° ESE 01:20:23 10° ESE visible
17 Oct ? 02:50:44 16° WSW 02:51:35 18° SSW 02:53:34 10° SSE visible
18 Oct ? 01:34:13 14° SE 01:34:13 14° SE 01:34:43 10° SE visible
18 Oct ? 03:05:32 10° SW 03:05:51 10° SW 03:06:10 10° SW visible
19 Oct ? 01:48:42 11° SSE 01:48:42 11° SSE 01:48:48 10° SSE visible
